Regional Weather Roundup
Issued by NWS

Home | Current Version | Previous Version | Text Only | Print | Product List | Glossary On
Versions: 1 2 3 4 5 6 7 8 9 10 11 12 13 14 15 16 17 18 19 20 21 22 23 24 25 26 27 28 29 30 31 32 33 34 35 36 37 38 39 40 41 42 43 44 45 46 47 48 49 50
000
ASUS43 KLMK 171010
RWRKY
KENTUCKY REGIONAL WEATHER ROUNDUP
NATIONAL WEATHER SERVICE LOUISVILLE KY
600 AM EDT TUE OCT 17 2017

NOTE "FAIR" INDICATES FEW OR NO CLOUDS BELOW 12,000 FEET
WITH NO SIGNIFICANT WEATHER AND/OR OBSTRUCTIONS TO VISIBILITY.

KYZ001>023-026-027-061>063-070>075-171100-
WESTERN AND SOUTH CENTRAL KENTUCKY

CITY           SKY/WX    TMP DP  RH WIND       PRES   REMARKS
PADUCAH        CLEAR     38  36  92 CALM      30.32R
HENDERSON      CLEAR     38  37  97 CALM      30.34R
OWENSBORO      CLEAR     41  40  96 CALM      30.35R
HOPKINSVILLE   CLEAR     41  39  92 CALM      30.33R
BOWLING GREEN  CLEAR     41  40  96 CALM      30.34S
GLASGOW        CLEAR    N/A N/A N/A CALM      30.34R HAZE
$$

KYZ024-025-028>034-038-045-046-053-171100-
NORTH CENTRAL KENTUCKY

CITY           SKY/WX    TMP DP  RH WIND       PRES   REMARKS
LOUISVILLE/SDF CLEAR     43  41  93 SE5       30.35R
LOUISVILLE/LOU CLEAR     41  40  96 CALM      30.36R
FORT KNOX      CLEAR     39  38  99 CALM      30.33R
$$

KYZ035>037-039>044-047>052-055>060-089>105-171100-
NORTHEAST KENTUCKY

CITY           SKY/WX    TMP DP  RH WIND       PRES   REMARKS
LEXINGTON      CLEAR     41  36  82 CALM      30.35R
COVINGTON      CLEAR     39  39 100 CALM      30.34R
FRANKFORT      CLEAR     37  34  89 CALM      30.34R
$$

KYZ054-064>069-076>088-106>120-171100-
SOUTHEAST KENTUCKY

CITY           SKY/WX    TMP DP  RH WIND       PRES   REMARKS
JACKSON        CLEAR     42  39  89 CALM      30.34R
LONDON         CLEAR     39  36  89 CALM      30.34R
SOMERSET       CLEAR     37  37 100 CALM      30.36R
MIDDLESBORO    FOG       39  39 100 CALM      30.37R VSB 1/4
MONTICELLO     MOSUNNY   35  34  96 VRB7      30.36R FOG     WCI  29
$$





USA.gov is the U.S. government's official web portal to all federal, state and local government web resources and services.